Find Starlink 3932

NORAD ID: 52576 Int'l Des: 2022-051 Owner: SPXS Country: US Constellation: starlink operational
LEOCIRCULAR

Live-Position

3D-Globus wird geladen...

Über Starlink 3932

Beschreibung wird geladen...

Nächste Überflüge

Passes for default location (London). Set your location on the main map for personalized predictions.

Höhenverlauf

Loading altitude history...

Zweizeiliger Elementsatz

1 52576U 22051AS 26104.84592288 .00000307 00000-0 37378-4 0 9996
2 52576 53.2169 316.8083 0001421 90.7973 269.3182 15.08838911217044
Epoch: 14. Apr. 2026 • Age: 11 hours

Aktueller Status

Höhe 553.8 km
Geschwindigkeit 7.58 km/s
Subsatellitenpunkt -40.05°S, 35.3°W
Startdatum 13. Mai 2022
Alter 3.9 years
Typ internet

Technische Details

Klassifizierung Payload
Masse 297.00 kg
Trockenmasse 275.00 kg
Gesamtmasse 297.00 kg
Länge 0.20 m
Durchmesser 2.80 m
Spannweite 9.00 m
Form Box + pan
Hersteller SPXS
Bus-Typ Starlink
Phasenstatus In Orbit
Besitzer/Staat SPXS/US

Most Searched